Regional Weather Roundup
Issued by NWS

Home | Current Version | Previous Version | Text Only | Print | Product List | Glossary Off
Versions: 1 2 3 4 5 6 7 8 9 10 11 12 13 14 15 16 17 18 19 20 21 22 23 24 25 26 27 28 29 30 31 32 33 34 35 36 37 38 39 40 41 42 43 44 45 46 47 48 49 50

000
ASUS43 KLOT 161408
RWRIL

ILLINOIS REGIONAL WEATHER ROUNDUP
NATIONAL WEATHER SERVICE CHICAGO/ROMEOVILLE IL
800 AM CST SAT DEC 16 2017

NOTE: "FAIR" INDICATES FEW OR NO CLOUDS BELOW 12,000 FEET WITH NO
SIGNIFICANT WEATHER AND/OR OBSTRUCTIONS TO VISIBILITY.

* THESE STATIONS ARE NOT UNDER NWS QUALITY CONTROL. THEY ALSO MAY NOT
  REPORT WEATHER SUCH AS PRECIPITATION OR FOG.

ILZ001-002-007-009-015-016-024-161500-
NORTHWEST ILLINOIS

CITY           SKY/WX    TMP DP  RH WIND       PRES   REMARKS
MOLINE         CLEAR     33  24  69 SW5       29.82R WCI  29
STERLING*      CLEAR     26  23  88 CALM      29.84R
SAVANNA*       CLOUDY    28  24  82 S6        29.82R WCI  22
$$

ILZ003-004-008-010-011-017-018-161500-
NORTH CENTRAL ILLINOIS

CITY           SKY/WX    TMP DP  RH WIND       PRES   REMARKS
ROCKFORD       PTCLDY    28  23  81 S6        29.84R WCI  22
FREEPORT*      CLEAR     28  23  81 S8        29.82R WCI  20
ROCHELLE*      CLEAR     27  23  83 S8        29.84S WCI  19
DE KALB*       CLEAR     28  24  86 S10       29.84S WCI  18
PERU*          CLEAR     31  24  72 SW8       29.86R WCI  24
$$

ILZ005-006-012>014-019>023-161500-
NORTHEAST ILLINOIS

CITY           SKY/WX    TMP DP  RH WIND       PRES   REMARKS
CHICAGO-OHARE  CLOUDY    34  24  67 S9        29.85S WCI  27
CHICAGO-MIDWAY PTCLDY    35  25  66 S8        29.87S WCI  29
AURORA         CLEAR     29  23  78 S8        29.86R WCI  21
LANSING*       PTCLDY    31  26  80 SW8       29.89S WCI  23
JOLIET*        CLEAR     32  26  76 S6        29.88S WCI  27
WAUKEGAN       CLOUDY    34  25  69 W3        29.85R
DUPAGE AIRPORT CLEAR     30  25  81 S8        29.84S WCI  22
KANKAKEE*      CLEAR     31  23  72 SW6       29.91S WCI  25
WHEELING       PTCLDY    35  25  66 SW5       29.87R WCI  31
MORRIS*        CLEAR     31  24  74 S9        29.87R WCI  23
ROMEOVILLE*    CLEAR     31  25  77 S8        29.87S WCI  24
NORTHERLY ISL    N/A     35  24  64 SW9         N/A  WCI  28
$$

LMZ740>746-161500-
SOUTHERN LAKE MICHIGAN

STATION/POSITION SKY/WX   TEMP    WIND        PRES    VSBY  WAVE
                          AIR SEA DIR/SP/G                  HT/PER
                          (F)     (DEG/KT/KT) (MB)    (MI)  (FT/S)
HARRISON CRIB              37     200/ 14/ 16   N/A
BURNHAM HARBOR             35     180/ 10/ 10   N/A
CALUMET HARBOR             34     200/ 10/ 15 1010.9F
BURNS HARBOR               35     210/ 10/ 16 1012.5R
MICHIGAN CITY              36     190/ 14/ 16   N/A
$$

ILZ025>027-034>036-040-047-049-050-058-095>099-161500-
WEST-CENTRAL ILLINOIS

CITY           SKY/WX    TMP DP  RH WIND       PRES   REMARKS
QUINCY         CLEAR     35  25  66 SW16      29.88R WCI  25
GALESBURG*     CLEAR     33  27  78 S9        29.85S WCI  25
MACOMB*        CLEAR     35  26  68 SW10      29.88R WCI  27
JACKSONVILLE*  CLEAR     35  24  63 S14       29.91S WCI  26
PITTSFIELD*    CLEAR     37  26  65 SW8       29.92S WCI  30
$$

ILZ028>032-037-038-041>044-048-051>054-059>061-161500-
CENTRAL ILLINOIS

CITY           SKY/WX    TMP DP  RH WIND       PRES   REMARKS
PONTIAC        CLEAR     32  26  78 S6        29.89S WCI  26
BLOOMINGTON    CLEAR     31  25  78 S15       29.90S WCI  20
DECATUR        CLEAR     34  25  69 SW17G25   29.94S WCI  23
PEORIA         CLEAR     30  25  81 S8        29.89R WCI  22
LACON*         PTCLDY    33  25  72 SW10      29.86S WCI  25
LINCOLN*       CLEAR     33  26  78 S9        29.92R WCI  25
SPRINGFIELD    CLEAR     35  26  69 S16       29.92S WCI  25
TAYLORVILLE    CLEAR     34  25  70 S17       29.95S WCI  23
$$

ILZ033-039-045-046-055>057-062-063-161500-
EAST-CENTRAL ILLINOIS

CITY           SKY/WX    TMP DP  RH WIND       PRES   REMARKS
CHAMPAIGN      CLEAR     32  26  78 S13       29.95R WCI  22
DANVILLE*      CLEAR     32  25  75 S16       29.92S WCI  22
RANTOUL*       CLEAR     36  28  72 SW13G22   29.92S WCI  27
MATTOON        CLEAR     32  27  81 S15       29.97S WCI  22
PARIS*         CLEAR     34  28  77 SW20      29.99S WCI  22
$$

ILZ079-100>102-161500-
SOUTHWEST ILLINOIS

CITY           SKY/WX    TMP DP  RH WIND       PRES   REMARKS
ALTON          CLEAR     34  27  75 S14       29.99F WCI  24
BELLEVILLE     CLEAR     34  26  73 SW12      30.02R WCI  25
CAHOKIA*       CLEAR     38  25  59 S10G20    30.01S WCI  31
SPARTA*        CLEAR     34  28  80 S7        30.06S WCI  28
$$

ILZ064>066-069>071-074>076-080>082-084>086-088>090-092>094-161500-
SOUTH-CENTRAL ILLINOIS

CITY           SKY/WX    TMP DP  RH WIND       PRES   REMARKS
CARBONDALE     CLEAR     34  29  82 SW10      30.09S WCI  26
CAIRO*         CLEAR     33  29  86 S6        30.16R WCI  27
EFFINGHAM*     CLEAR     35  28  77 S14       30.03S WCI  26
MARION         PTCLDY    32  32 100 S12       30.11R WCI  23
MT. VERNON     CLEAR     32  31  96 SW12      30.08R WCI  23
CENTRALIA*     CLEAR     35  30  82 S13       30.04S WCI  26
SALEM*         CLEAR     37  28  72 S13       30.04S WCI  28
METROPOLIS*    CLEAR     33  28  81 S8        30.16S WCI  27
$$

ILZ067-068-072-073-078-083-087-091-161500-
SOUTHEAST ILLINOIS

CITY           SKY/WX    TMP DP  RH WIND       PRES   REMARKS
LAWRENCEVILLE  CLEAR     33  28  81 S10       30.08R WCI  25
FLORA*         CLEAR     34  29  83 S13       30.06R WCI  25
FAIRFIELD*     CLEAR     32  29  88 S6        30.08S WCI  26
HARRISBURG*    CLEAR     34  30  85 SW10G17   30.11S WCI  26
ROBINSON*      CLEAR     32  28  83 S10       30.06S WCI  24
CARMI*         CLEAR     32  29  89 S8        30.11R WCI  25
$$

ABBREVIATIONS USED IN REMARKS
   TC - TEMPERATURE IN CELSIUS
  WCI - WIND CHILL INDEX
   HX - HEAT INDEX
  VSB - VISIBILITY
$$





USA.gov is the U.S. government's official web portal to all federal, state and local government web resources and services.